Location: Hartford
(41.7640°N, 72.6860°W)
Time: 02:39:04
(UTC-05:00)

ISS - All Passes

Search period start: 28 February 2017 00:00
Search period end: 10 March 2017 00:00
Orbit: 399 x 408 km, 51.6° (Epoch: 28 February)

Date Brightness Start Highest point End Pass type
(mag) Time Alt. Az. Time Alt. Az. Time Alt. Az.
28 Feb - 05:24:03 10° SSE 05:25:21 12° SE 05:26:39 10° ESE visible
28 Feb - 06:58:05 10° WSW 07:01:23 80° NW 07:04:41 10° NE daylight
28 Feb - 08:35:43 10° WNW 08:38:15 20° NNW 08:40:47 10° NE daylight
28 Feb - 10:13:36 10° NNW 10:15:38 15° N 10:17:39 10° NE daylight
28 Feb - 11:49:52 10° NW 11:52:52 31° NNE 11:55:50 10° E daylight
28 Feb - 13:26:16 10° WNW 13:29:22 38° SW 13:32:26 10° SSE daylight
01 Mar - 06:05:38 10° SW 06:08:51 53° SE 06:12:04 10° ENE daylight
01 Mar - 07:42:37 10° W 07:45:28 26° NNW 07:48:20 10° NE daylight
01 Mar - 09:20:47 10° NW 09:22:46 15° N 09:24:44 10° NE daylight
01 Mar - 10:57:26 10° NW 11:00:07 22° NNE 11:02:47 10° ENE daylight
01 Mar - 12:33:35 10° WNW 12:36:52 76° SW 12:40:08 10° SE daylight
02 Mar - 05:13:33 10° SSW 05:16:23 27° SE 05:19:14 10° ENE visible
02 Mar - 06:49:37 10° W 06:52:45 39° NNW 06:55:53 10° NE daylight
02 Mar - 08:27:45 10° NW 08:29:53 16° N 08:32:01 10° NNE daylight
02 Mar - 10:04:57 10° NNW 10:07:18 18° NNE 10:09:38 10° ENE daylight
02 Mar - 11:41:01 10° NW 11:44:17 58° NNE 11:47:31 10° ESE daylight
02 Mar - 13:18:15 10° W 13:20:26 17° SW 13:22:37 10° S daylight
03 Mar - 04:22:06 10° SSE 04:23:59 15° SE 04:25:54 10° E visible
03 Mar - 05:56:49 10° WSW 06:00:05 66° NNW 06:03:23 10° NE daylight
03 Mar - 07:34:36 10° WNW 07:37:01 19° NNW 07:39:27 10° NNE daylight
03 Mar - 09:12:21 10° NNW 09:14:26 15° N 09:16:31 10° NE daylight
03 Mar - 10:48:32 10° NW 10:51:37 35° NNE 10:54:39 10° E daylight
03 Mar - 12:25:04 10° WNW 12:28:01 31° SW 12:30:58 10° SSE daylight
04 Mar - 05:04:14 10° SW 05:07:29 66° SE 05:10:47 10° ENE visible
04 Mar - 06:41:27 10° WNW 06:44:12 24° NNW 06:46:57 10° NE daylight
04 Mar - 08:19:33 10° NW 08:21:31 15° N 08:23:30 10° NE daylight
04 Mar - 09:56:04 10° NW 09:58:51 24° NNE 10:01:37 10° ENE daylight
04 Mar - 11:32:15 10° WNW 11:35:32 62° SW 11:38:45 10° SE daylight
05 Mar - 04:11:59 10° SSW 04:14:58 33° SE 04:17:59 10° ENE visible
05 Mar - 05:48:22 10° W 05:51:25 34° NNW 05:54:28 10° NE visible
05 Mar - 07:26:33 10° NW 07:28:36 15° N 07:30:40 10° NNE daylight
05 Mar - 09:03:33 10° NNW 09:06:00 19° NNE 09:08:27 10° ENE daylight
05 Mar - 10:39:38 10° NW 10:42:55 70° NNE 10:46:11 10° ESE daylight
05 Mar - 12:17:14 10° W 12:18:59 14° SW 12:20:43 10° SSW daylight
06 Mar - 03:20:13 10° S 03:22:30 18° SE 03:24:49 10° E visible
06 Mar - 04:55:28 10° WSW 04:58:41 55° NNW 05:01:57 10° NE visible
06 Mar - 06:33:22 10° WNW 06:35:42 17° NNW 06:38:01 10° NNE daylight
06 Mar - 08:10:57 10° NNW 08:13:06 16° N 08:15:15 10° NE daylight
06 Mar - 09:47:05 10° NW 09:50:13 40° NNE 09:53:21 10° E daylight
06 Mar - 11:23:46 10° WNW 11:26:34 26° SW 11:29:20 10° SSE daylight
07 Mar - 04:02:45 10° SW 04:06:02 81° SE 04:09:20 10° ENE visible
07 Mar - 05:40:10 10° WNW 05:42:49 22° NNW 05:45:28 10° NE visible
07 Mar - 07:18:11 10° NW 07:20:10 15° N 07:22:09 10° NE daylight
07 Mar - 08:54:33 10° NW 08:57:26 27° NNE 09:00:19 10° E daylight
07 Mar - 10:30:50 10° WNW 10:34:02 49° SW 10:37:14 10° SE daylight
08 Mar - 03:10:21 10° SSW 03:13:26 41° SE 03:16:34 10° ENE visible
08 Mar - 04:47:01 10° W 04:49:58 30° NNW 04:52:56 10° NE visible
08 Mar - 06:25:12 10° NW 06:27:12 15° N 06:29:13 10° NNE daylight
08 Mar - 08:02:01 10° NW 08:04:35 20° NNE 08:07:08 10° ENE daylight
08 Mar - 09:38:06 10° NW 09:41:25 85° NE 09:44:43 10° SE daylight
08 Mar - 11:16:22 10° WSW 11:17:24 11° SW 11:18:27 10° SSW daylight
09 Mar - 02:18:22 10° S 02:20:56 21° SE 02:23:31 10° E night (unlit)
09 Mar - 03:54:00 10° WSW 03:57:11 46° NNW 04:00:23 10° NE visible
09 Mar - 05:32:02 10° NW 05:34:15 17° N 05:36:29 10° NNE visible
09 Mar - 07:09:26 10° NNW 07:11:39 17° N 07:13:53 10° NE daylight
09 Mar - 08:45:30 10° NW 08:48:43 47° NNE 08:51:54 10° ESE daylight
09 Mar - 10:22:24 10° W 10:24:58 21° SW 10:27:31 10° S daylight
